| time (UTC) | temp F | wind direction | speed MPH | gust MPH | rain 1hr in | rain 24hr in | rain mn in | humidity % | barometer mb |
| 20260504222025 | 60 | 257 | 1.0 | 7.0 | 0.00 | 0.00 | 0.00 | 60 | 1004.9 |
| 20260504221025 | 61 | 271 | 1.0 | 7.0 | 0.00 | 0.00 | 0.00 | 56 | 1004.9 |
| 20260504220004 | 61 | 245 | 2.0 | 8.0 | 0.00 | 0.00 | 0.00 | 58 | 1004.9 |
| 20260504215004 | 61 | 251 | 5.0 | 16.0 | 0.00 | 0.00 | 0.00 | 56 | 1005.0 |
| 20260504214004 | 62 | 263 | 3.0 | 12.0 | 0.00 | 0.00 | 0.00 | 56 | 1005.0 |
| 20260504213024 | 63 | 263 | 4.0 | 11.0 | 0.00 | 0.00 | 0.00 | 52 | 1004.8 |
| 20260504212024 | 63 | 268 | 4.0 | 16.0 | 0.00 | 0.00 | 0.00 | 54 | 1004.8 |
| 20260504211004 | 64 | 263 | 6.0 | 20.0 | 0.00 | 0.00 | 0.00 | 52 | 1004.7 |
| 20260504210004 | 64 | 234 | 6.0 | 15.0 | 0.00 | 0.00 | 0.00 | 51 | 1004.6 |
| 20260504205003 | 64 | 260 | 7.0 | 16.0 | 0.00 | 0.00 | 0.00 | 53 | 1004.4 |
| 20260504204024 | 64 | 254 | 8.0 | 21.0 | 0.00 | 0.00 | 0.00 | 52 | 1004.4 |
| 20260504203003 | 63 | 248 | 6.0 | 18.0 | 0.00 | 0.00 | 0.00 | 53 | 1004.4 |
| 20260504202003 | 62 | 248 | 4.0 | 15.0 | 0.00 | 0.00 | 0.00 | 56 | 1004.4 |
| 20260504201003 | 62 | 258 | 7.0 | 14.0 | 0.00 | 0.00 | 0.00 | 55 | 1004.3 |
| 20260504200003 | 63 | 261 | 7.0 | 23.0 | 0.00 | 0.00 | 0.00 | 54 | 1004.1 |
| 20260504195024 | 62 | 241 | 6.0 | 16.0 | 0.00 | 0.00 | 0.00 | 57 | 1004.1 |
| 20260504194003 | 60 | 235 | 8.0 | 24.0 | 0.00 | 0.00 | 0.00 | 58 | 1004.2 |
| 20260504193003 | 61 | 234 | 7.0 | 23.0 | 0.00 | 0.00 | 0.00 | 57 | 1004.2 |
| 20260504192003 | 62 | 215 | 6.0 | 13.0 | 0.00 | 0.01 | 0.00 | 56 | 1004.2 |
| 20260504191003 | 62 | 245 | 7.0 | 19.0 | 0.00 | 0.01 | 0.00 | 57 | 1004.2 |
| 20260504190003 | 60 | 236 | 8.0 | 23.0 | 0.00 | 0.02 | 0.00 | 60 | 1004.4 |
| 20260504185024 | 59 | 231 | 8.0 | 17.0 | 0.00 | 0.02 | 0.00 | 63 | 1004.4 |
| 20260504184024 | 58 | 238 | 7.0 | 19.0 | 0.00 | 0.02 | 0.00 | 62 | 1004.6 |
| 20260504183003 | 59 | 209 | 10.0 | 18.0 | 0.00 | 0.03 | 0.00 | 60 | 1004.7 |
| 20260504182003 | 60 | 217 | 6.0 | 16.0 | 0.00 | 0.03 | 0.00 | 60 | 1004.6 |
| 20260504181003 | 59 | 227 | 8.0 | 19.0 | 0.00 | 0.04 | 0.00 | 59 | 1004.9 |
| 20260504180003 | 58 | 216 | 7.0 | 16.0 | 0.00 | 0.04 | 0.00 | 62 | 1005.0 |
| 20260504175024 | 57 | 214 | 5.0 | 12.0 | 0.00 | 0.05 | 0.00 | 64 | 1005.0 |
| 20260504174024 | 56 | 238 | 6.0 | 15.0 | 0.00 | 0.06 | 0.00 | 64 | 1005.2 |
| 20260504173004 | 56 | 227 | 5.0 | 12.0 | 0.00 | 0.07 | 0.00 | 61 | 1005.1 |
| 20260504172004 | 56 | 231 | 6.0 | 15.0 | 0.00 | 0.07 | 0.00 | 60 | 1005.1 |
| 20260504171004 | 57 | 222 | 3.0 | 10.0 | 0.00 | 0.08 | 0.00 | 59 | 1004.9 |
| 20260504151004 | 57 | 209 | 6.0 | 17.0 | 0.00 | 0.18 | 0.00 | 53 | 1005.0 |
| 20260504141004 | 54 | 231 | 5.0 | 12.0 | 0.00 | 0.23 | 0.00 | 55 | 1006.1 |
| 20260504082004 | 33 | 245 | 1.0 | 8.0 | 0.00 | 0.45 | 0.00 | 87 | 1006.1 |
| 20260504081025 | 33 | 247 | 1.0 | 7.0 | 0.00 | 0.46 | 0.00 | 88 | 1006.3 |
| 20260504050004 | 38 | 267 | 1.0 | 5.0 | 0.00 | 0.47 | 0.00 | 76 | 1005.4 |
| 20260504045004 | 38 | 270 | 0.0 | 6.0 | 0.00 | 0.47 | 0.00 | 76 | 1005.3 |
| 20260504044004 | 38 | 266 | 2.0 | 9.0 | 0.00 | 0.47 | 0.00 | 77 | 1005.2 |
| 20260504043004 | 37 | 270 | 2.0 | 8.0 | 0.00 | 0.47 | 0.00 | 78 | 1005.1 |
| 20260504042004 | 37 | 269 | 1.0 | 8.0 | 0.00 | 0.47 | 0.00 | 78 | 1005.1 |
| 20260504041004 | 37 | 265 | 0.0 | 3.0 | 0.00 | 0.47 | 0.00 | 77 | 1005.0 |
| 20260504040025 | 37 | 269 | 0.0 | 4.0 | 0.00 | 0.47 | 0.00 | 76 | 1005.0 |
| 20260504035004 | 38 | 268 | 1.0 | 7.0 | 0.00 | 0.47 | 0.47 | 76 | 1004.9 |
| 20260504034004 | 38 | 275 | 1.0 | 7.0 | 0.00 | 0.47 | 0.47 | 76 | 1004.8 |
| 20260504033004 | 38 | 269 | 0.0 | 4.0 | 0.00 | 0.47 | 0.47 | 76 | 1004.7 |
| 20260504032004 | 38 | 268 | 0.0 | 2.0 | 0.00 | 0.47 | 0.47 | 76 | 1004.7 |
| 20260504031004 | 39 | 266 | 0.0 | 7.0 | 0.00 | 0.47 | 0.47 | 74 | 1004.7 |
| 20260504030003 | 39 | 280 | 0.0 | 4.0 | 0.00 | 0.47 | 0.47 | 73 | 1004.6 |
| 20260504025003 | 40 | 265 | 1.0 | 9.0 | 0.00 | 0.47 | 0.47 | 71 | 1004.5 |
| 20260504024003 | 40 | 270 | 1.0 | 8.0 | 0.00 | 0.47 | 0.47 | 70 | 1004.5 |
| 20260504023003 | 40 | 263 | 1.0 | 6.0 | 0.00 | 0.47 | 0.47 | 72 | 1004.5 |
| 20260504022024 | 40 | 263 | 1.0 | 9.0 | 0.00 | 0.47 | 0.47 | 71 | 1004.3 |
| 20260504021003 | 40 | 262 | 2.0 | 7.0 | 0.00 | 0.47 | 0.47 | 73 | 1004.2 |
| 20260504020003 | 41 | 267 | 2.0 | 9.0 | 0.00 | 0.47 | 0.47 | 72 | 1004.1 |
| 20260504015003 | 41 | 267 | 2.0 | 11.0 | 0.00 | 0.47 | 0.47 | 72 | 1004.1 |
| 20260504014024 | 41 | 264 | 1.0 | 8.0 | 0.00 | 0.47 | 0.47 | 72 | 1004.0 |
| 20260504013003 | 42 | 260 | 1.0 | 7.0 | 0.00 | 0.47 | 0.47 | 71 | 1004.0 |
| 20260504012003 | 42 | 268 | 1.0 | 8.0 | 0.00 | 0.47 | 0.47 | 69 | 1003.9 |
| 20260504011003 | 43 | 262 | 3.0 | 13.0 | 0.00 | 0.47 | 0.47 | 66 | 1003.8 |
| 20260504010003 | 43 | 273 | 3.0 | 17.0 | 0.00 | 0.47 | 0.47 | 67 | 1003.6 |
| 20260504005003 | 44 | 272 | 4.0 | 16.0 | 0.00 | 0.47 | 0.47 | 66 | 1003.4 |
| 20260504004003 | 44 | 272 | 3.0 | 15.0 | 0.00 | 0.47 | 0.47 | 65 | 1003.3 |
| 20260504003024 | 44 | 271 | 3.0 | 12.0 | 0.00 | 0.47 | 0.47 | 65 | 1003.1 |
| 20260504002003 | 45 | 274 | 3.0 | 11.0 | 0.00 | 0.47 | 0.47 | 64 | 1002.9 |
| 20260504001003 | 45 | 271 | 3.0 | 13.0 | 0.00 | 0.47 | 0.47 | 66 | 1002.8 |
| 20260504000003 | 46 | 279 | 3.0 | 15.0 | 0.00 | 0.47 | 0.47 | 67 | 1002.5 |
| 20260503235024 | 46 | 276 | 2.0 | 13.0 | 0.00 | 0.47 | 0.47 | 75 | 1002.4 |
| 20260503234024 | 47 | 299 | 0.0 | 4.0 | 0.00 | 0.47 | 0.47 | 84 | 1002.2 |
| 20260503233024 | 48 | 321 | 0.0 | 2.0 | 0.00 | 0.47 | 0.47 | 82 | 1002.1 |
| 20260503232004 | 48 | 317 | 0.0 | 2.0 | 0.00 | 0.47 | 0.47 | 81 | 1001.9 |
| 20260503231004 | 48 | 239 | 0.0 | 2.0 | 0.00 | 0.47 | 0.47 | 81 | 1001.8 |
| 20260503230004 | 48 | 291 | 1.0 | 4.0 | 0.00 | 0.47 | 0.47 | 80 | 1001.8 |
| 20260503225004 | 48 | 297 | 1.0 | 8.0 | 0.00 | 0.47 | 0.47 | 80 | 1001.7 |
| 20260503224004 | 48 | 319 | 1.0 | 7.0 | 0.00 | 0.47 | 0.47 | 79 | 1001.7 |
| 20260503223004 | 48 | 287 | 1.0 | 5.0 | 0.00 | 0.47 | 0.47 | 81 | 1001.6 |